FDX736 YSSY-RJBB

Flight info

Callsign FDX736
Flight time N/A
Altitude 28000
Route SY3/25 RIC H530 KABIX/N0475F270 Q141 UBGAN/N0498F290 Q141 ESKUT/N0488F280 Q141 OVRON B462 NONIR/N0503F300 B462 PY B586 PIKOK DCT 05N145E/N0498F320 1000N14330E 1500N14215E 20N141E DCT MONPI A597 ASEDA/N0485F340 A597 BUBDO Y47 TAPOP Y46 EVERT
Aircraft MD11/H-SDE1E2E3FGHIJ2J3J4J5M1RWXY/LB1D1

Departure

Time 2026-05-07 11:07
Airport Sydney Kingsford Smith International Airport (YSSY)

Arrival

Time N/A
Airport Kansai International Airport (RJBB)
Time Latitude Longitude Altitude Speed Heading
2026-05-07 10:20 -33.92891 151.16832 31 ft 0 kts 347°
2026-05-07 10:49 -33.92900 151.16834 31 ft 2 kts 348°
2026-05-07 10:49 -33.92915 151.16838 31 ft 2 kts 348°
2026-05-07 10:49 -33.92930 151.16841 31 ft 2 kts 348°
2026-05-07 10:50 -33.92944 151.16846 31 ft 2 kts 348°
2026-05-07 10:50 -33.92959 151.16850 31 ft 2 kts 336°
2026-05-07 10:50 -33.92971 151.16859 31 ft 2 kts 321°
2026-05-07 10:50 -33.92982 151.16872 31 ft 2 kts 308°
2026-05-07 10:51 -33.92990 151.16887 31 ft 2 kts 294°
2026-05-07 10:51 -33.92994 151.16904 31 ft 2 kts 272°
2026-05-07 10:51 -33.92992 151.16922 31 ft 2 kts 252°
2026-05-07 10:51 -33.92987 151.16939 31 ft 2 kts 256°
2026-05-07 10:52 -33.92984 151.16957 31 ft 2 kts 257°
2026-05-07 10:52 -33.92981 151.16974 31 ft 2 kts 256°
2026-05-07 10:52 -33.92979 151.16980 31 ft 0 kts 256°
2026-05-07 10:56 -33.92982 151.16969 31 ft 3 kts 256°
2026-05-07 10:56 -33.92994 151.16930 31 ft 6 kts 234°
2026-05-07 10:56 -33.93039 151.16908 31 ft 7 kts 177°
2026-05-07 10:57 -33.93093 151.16921 31 ft 8 kts 169°
2026-05-07 10:57 -33.93150 151.16933 31 ft 8 kts 169°
2026-05-07 10:57 -33.93204 151.16945 31 ft 7 kts 169°
2026-05-07 10:57 -33.93253 151.16962 31 ft 7 kts 154°
2026-05-07 10:58 -33.93289 151.17000 31 ft 7 kts 133°
2026-05-07 10:58 -33.93339 151.17052 31 ft 11 kts 150°
2026-05-07 10:58 -33.93417 151.17082 31 ft 11 kts 167°
2026-05-07 10:58 -33.93495 151.17104 31 ft 11 kts 169°
2026-05-07 10:59 -33.93570 151.17120 31 ft 12 kts 168°
2026-05-07 10:59 -33.93679 151.17146 31 ft 19 kts 168°
2026-05-07 10:59 -33.93810 151.17178 31 ft 18 kts 169°
2026-05-07 10:59 -33.93919 151.17206 31 ft 11 kts 167°
2026-05-07 11:00 -33.93958 151.17270 31 ft 10 kts 84°
2026-05-07 11:00 -33.93938 151.17362 31 ft 12 kts 75°
2026-05-07 11:00 -33.93912 151.17477 31 ft 16 kts 75°
2026-05-07 11:00 -33.93878 151.17627 31 ft 20 kts 75°
2026-05-07 11:01 -33.93843 151.17773 31 ft 17 kts 74°
2026-05-07 11:01 -33.93805 151.17932 31 ft 21 kts 74°
2026-05-07 11:01 -33.93767 151.18091 31 ft 20 kts 74°
2026-05-07 11:01 -33.93725 151.18265 31 ft 22 kts 74°
2026-05-07 11:02 -33.93682 151.18445 31 ft 22 kts 74°
2026-05-07 11:02 -33.93639 151.18626 31 ft 14 kts 74°
2026-05-07 11:02 -33.93614 151.18736 31 ft 14 kts 75°
2026-05-07 11:02 -33.93592 151.18840 31 ft 12 kts 86°
2026-05-07 11:03 -33.93617 151.18922 31 ft 9 kts 135°
2026-05-07 11:03 -33.93640 151.18939 31 ft 0 kts 159°
2026-05-07 11:04 -33.93650 151.18944 31 ft 7 kts 160°
2026-05-07 11:04 -33.93731 151.18965 31 ft 11 kts 195°
2026-05-07 11:05 -33.93773 151.18903 31 ft 5 kts 254°
2026-05-07 11:05 -33.93774 151.18896 31 ft 0 kts 254°
2026-05-07 11:06 -33.93806 151.18764 31 ft 43 kts 255°
2026-05-07 11:06 -33.93942 151.18178 31 ft 104 kts 254°
2026-05-07 11:06 -33.94198 151.17096 31 ft 163 kts 255°
2026-05-07 11:07 -33.94523 151.15649 291 ft 183 kts 255°
2026-05-07 11:07 -33.94857 151.14156 807 ft 188 kts 254°
2026-05-07 11:07 -33.95096 151.12637 1492 ft 188 kts 269°
2026-05-07 11:07 -33.94884 151.11107 2179 ft 191 kts 284°
2026-05-07 11:08 -33.94297 151.09644 2719 ft 205 kts 295°
2026-05-07 11:08 -33.93367 151.08244 3228 ft 218 kts 308°
2026-05-07 11:08 -33.92257 151.07048 3931 ft 217 kts 307°
2026-05-07 11:08 -33.90995 151.05800 4102 ft 245 kts 317°
2026-05-07 11:09 -33.89450 151.04753 4539 ft 263 kts 330°
2026-05-07 11:09 -33.87749 151.03839 4964 ft 280 kts 329°
2026-05-07 11:09 -33.85914 151.02805 5301 ft 279 kts 329°
2026-05-07 11:09 -33.84284 151.01865 6220 ft 248 kts 324°
2026-05-07 11:10 -33.82883 151.00707 6401 ft 245 kts 306°
2026-05-07 11:11 -33.77232 150.95279 5778 ft 283 kts 316°
2026-05-07 11:11 -33.75664 150.93842 6330 ft 281 kts 316°
2026-05-07 11:11 -33.74117 150.92401 6798 ft 281 kts 316°
2026-05-07 11:11 -33.72581 150.90973 7249 ft 282 kts 316°
2026-05-07 11:12 -33.71018 150.89514 7686 ft 283 kts 315°
2026-05-07 11:12 -33.69474 150.88072 8085 ft 284 kts 315°
2026-05-07 11:12 -33.67903 150.86604 8497 ft 286 kts 315°
2026-05-07 11:12 -33.66324 150.85129 8894 ft 288 kts 315°
2026-05-07 11:13 -33.64722 150.83633 9287 ft 291 kts 315°
2026-05-07 11:13 -33.63121 150.82134 9677 ft 293 kts 314°
2026-05-07 11:13 -33.61540 150.80600 10048 ft 294 kts 312°
2026-05-07 11:13 -33.59992 150.78983 10423 ft 294 kts 309°
2026-05-07 11:14 -33.58528 150.77275 10759 ft 295 kts 306°
2026-05-07 11:14 -33.57075 150.75514 11134 ft 297 kts 306°
2026-05-07 11:14 -33.55626 150.73746 11348 ft 305 kts 306°
2026-05-07 11:14 -33.54089 150.71872 11487 ft 315 kts 306°
2026-05-07 11:15 -33.52518 150.69968 11648 ft 325 kts 306°
2026-05-07 11:15 -33.50912 150.68024 11955 ft 333 kts 306°
2026-05-07 11:15 -33.49222 150.65981 12119 ft 349 kts 306°
2026-05-07 11:15 -33.47490 150.63879 12178 ft 367 kts 306°
2026-05-07 11:16 -33.45645 150.61652 12261 ft 385 kts 306°
2026-05-07 11:16 -33.43710 150.59311 12385 ft 401 kts 307°
2026-05-07 11:16 -33.41741 150.56944 12777 ft 408 kts 307°
2026-05-07 11:16 -33.39701 150.54485 13212 ft 415 kts 307°
2026-05-07 11:17 -33.37637 150.52092 13711 ft 421 kts 308°
2026-05-07 11:17 -33.35489 150.49669 14235 ft 424 kts 307°
2026-05-07 11:17 -33.33359 150.47252 14739 ft 427 kts 307°
2026-05-07 11:17 -33.31224 150.44817 15298 ft 428 kts 307°
2026-05-07 11:18 -33.29050 150.42339 15789 ft 431 kts 307°
2026-05-07 11:18 -33.26880 150.39853 16342 ft 431 kts 307°
2026-05-07 11:18 -33.24702 150.37361 16861 ft 433 kts 307°
2026-05-07 11:18 -33.22523 150.34871 17389 ft 434 kts 307°
2026-05-07 11:19 -33.20344 150.32375 17840 ft 436 kts 308°
2026-05-07 11:19 -33.18131 150.29840 18345 ft 438 kts 308°
2026-05-07 11:19 -33.15951 150.27347 18821 ft 439 kts 308°
2026-05-07 11:19 -33.13703 150.24773 19242 ft 442 kts 308°
2026-05-07 11:20 -33.11491 150.22234 19678 ft 444 kts 308°
2026-05-07 11:20 -33.09277 150.19698 20108 ft 446 kts 308°
2026-05-07 11:20 -33.07027 150.17122 20555 ft 447 kts 308°
2026-05-07 11:20 -33.04783 150.14552 20959 ft 449 kts 308°
2026-05-07 11:21 -33.02519 150.11958 21396 ft 450 kts 308°
2026-05-07 11:21 -33.00277 150.09384 21797 ft 452 kts 308°
2026-05-07 11:21 -32.98005 150.06781 22133 ft 455 kts 308°
2026-05-07 11:21 -32.95731 150.04172 22561 ft 456 kts 308°
2026-05-07 11:22 -32.93425 150.01524 22842 ft 460 kts 308°
2026-05-07 11:22 -32.91113 149.98894 23196 ft 463 kts 309°
2026-05-07 11:22 -32.88777 149.96263 23563 ft 464 kts 309°
2026-05-07 11:22 -32.86438 149.93619 23918 ft 465 kts 309°
2026-05-07 11:23 -32.84074 149.90944 24220 ft 467 kts 309°
2026-05-07 11:23 -32.81719 149.88277 24623 ft 467 kts 309°
2026-05-07 11:23 -32.79321 149.85556 24895 ft 470 kts 309°
2026-05-07 11:23 -32.76944 149.82863 25175 ft 472 kts 309°
2026-05-07 11:24 -32.74587 149.80191 25465 ft 474 kts 309°
2026-05-07 11:24 -32.72157 149.77460 25718 ft 477 kts 310°
2026-05-07 11:24 -32.69749 149.74765 26033 ft 478 kts 310°
2026-05-07 11:24 -32.67348 149.72072 26322 ft 479 kts 310°
2026-05-07 11:25 -32.64931 149.69354 26574 ft 481 kts 309°
2026-05-07 11:25 -32.62504 149.66629 26838 ft 483 kts 309°
2026-05-07 11:25 -32.60052 149.63858 27140 ft 483 kts 309°
2026-05-07 11:25 -32.57726 149.61032 27302 ft 484 kts 306°
2026-05-07 11:26 -32.55410 149.58064 27559 ft 485 kts 306°
2026-05-07 11:26 -32.53205 149.55109 27969 ft 481 kts 304°
2026-05-07 11:26 -32.51067 149.52086 28324 ft 479 kts 303°
2026-05-07 11:26 -32.48909 149.48996 28592 ft 480 kts 303°
2026-05-07 11:27 -32.46770 149.45918 28963 ft 478 kts 303°
2026-05-07 11:27 -32.44644 149.42857 29404 ft 475 kts 303°
2026-05-07 11:27 -32.42525 149.39807 29706 ft 474 kts 303°
2026-05-07 11:27 -32.40395 149.36740 30016 ft 473 kts 303°
2026-05-07 11:28 -32.38309 149.33736 30243 ft 472 kts 304°
2026-05-07 11:28 -32.36190 149.30687 30221 ft 471 kts 304°
2026-05-07 11:28 -32.32005 149.24652 30252 ft 472 kts 304°
2026-05-07 11:29 -32.27858 149.18671 30243 ft 472 kts 304°
2026-05-07 11:29 -32.23658 149.12610 30241 ft 472 kts 304°
2026-05-07 11:30 -32.19505 149.06615 30245 ft 472 kts 304°
2026-05-07 11:30 -32.15288 149.00624 30244 ft 473 kts 304°
2026-05-07 11:31 -32.11100 148.94665 30258 ft 474 kts 304°
2026-05-07 11:31 -32.06596 148.88904 30267 ft 480 kts 311°
2026-05-07 11:32 -31.98541 148.81738 30262 ft 486 kts 322°
2026-05-07 11:33 -31.92895 148.77418 30281 ft 484 kts 322°